Retour au catalogue

BREEZE-M DEB

ActifHEO
NORAD 38583·DEBRIS·🇷🇺 Russia

Lancé Mar 14, 2008 depuis Baikonur Cosmodrome

Loading…

Prochains Passages (prochaines 24 heures)

TLE

FraisSource: Space-Track

Époque: Sep 12, 2026, 23:35 UTC

1 38583U 08011AE  26255.98292078  .00001417  00000-0  34986-2 0  9997
2 38583  49.3091 143.6680 6488177  39.2390 353.3049  3.20331592176661

Suivez BREEZE-M DEB en temps réel avec AllMySat

Download on the App Store